Location: Unspecified
(0.0000°N, 0.0000°E)
Time: 15:00:00
(UTC+00:00)

Transit 2A Rocket - All Passes

Search period start: 01 August 2021 00:00
Search period end: 11 August 2021 00:00
Orbit: 589 x 913 km, 66.7° (Epoch: 01 August)

Date Brightness Start Highest point End Pass type
(mag) Time Alt. Az. Time Alt. Az. Time Alt. Az.
01 Aug - 01:08:00 10° NW 01:13:37 40° WSW 01:19:16 10° S night (unlit)
01 Aug - 11:57:27 10° S 12:01:17 31° ESE 12:05:05 10° NE daylight
02 Aug - 00:24:59 10° NNW 00:31:01 80° WSW 00:37:07 10° SSE night (unlit)
02 Aug - 11:16:36 10° SE 11:18:41 13° ESE 11:20:46 10° E daylight
02 Aug - 12:57:36 10° WSW 13:00:56 22° WNW 13:04:17 10° NNW daylight
02 Aug - 23:42:35 10° N 23:48:27 53° ENE 23:54:21 10° SSE night (unlit)
03 Aug - 01:28:12 10° W 01:30:52 13° WSW 01:33:33 10° SW night (unlit)
03 Aug - 12:14:11 10° SSW 12:18:22 54° WNW 12:22:34 10° N daylight
03 Aug - 23:00:52 10° NNE 23:05:52 27° ENE 23:10:54 10° SE night (unlit)
04 Aug - 00:43:17 10° NW 00:48:15 26° WSW 00:53:13 10° SSW night (unlit)
04 Aug - 11:31:37 10° S 11:35:49 57° ESE 11:40:01 10° NNE daylight
04 Aug - 22:20:24 10° NE 22:23:15 14° ENE 22:26:06 10° E night (unlit)
04 Aug - 23:59:48 10° NW 00:05:39 51° WSW 00:11:31 10° S night (unlit)
05 Aug - 10:49:50 10° SSE 10:53:16 23° ESE 10:56:40 10° ENE daylight
05 Aug - 12:33:36 10° W 12:35:30 13° WNW 12:37:24 10° NW daylight
05 Aug - 23:17:01 10° NNW 23:23:04 82° ENE 23:29:09 10° SSE night (unlit)
06 Aug - 11:49:10 10° SW 11:52:55 30° WNW 11:56:41 10° N daylight
06 Aug - 22:34:50 10° N 22:40:29 42° ENE 22:46:10 10° SE night (unlit)
07 Aug - 00:19:06 10° WNW 00:22:53 17° WSW 00:26:40 10° SSW night (unlit)
07 Aug - 11:06:05 10° SSW 11:10:21 77° WNW 11:14:39 10° NNE daylight
07 Aug - 21:53:25 10° NNE 21:57:54 21° ENE 22:02:23 10° ESE night (unlit)
07 Aug - 23:34:54 10° NW 23:40:17 33° WSW 23:45:39 10° S night (unlit)
08 Aug - 10:23:46 10° S 10:27:49 40° ESE 10:31:50 10° NE daylight
08 Aug - 22:51:41 10° NNW 22:57:41 66° WSW 23:03:41 10° S night (unlit)
09 Aug - 09:42:26 10° SSE 09:45:14 17° ESE 09:48:02 10° ENE daylight
09 Aug - 11:24:37 10° WSW 11:27:28 17° WNW 11:30:21 10° NNW daylight
09 Aug - 22:09:07 10° N 22:15:07 65° ENE 22:21:06 10° SSE night (unlit)
09 Aug - 23:56:53 10° WSW 23:57:32 10° WSW 23:58:11 10° WSW night (unlit)
10 Aug - 10:40:52 10° SW 10:44:54 41° WNW 10:48:58 10° N daylight
10 Aug - 21:27:10 10° N 21:32:31 33° ENE 21:37:52 10° SE night (unlit)
10 Aug - 23:10:23 10° WNW 23:14:54 22° WSW 23:19:24 10° SSW night (unlit)
